sat.trackr.live / text

‹ back to catalog

IRNSS-1G

NORAD 41469 · 2016-027A

PAYLOAD ACTIVE UNKNOWN

§ Identity

Operator
Country
IND
Launch date
2016-04-28
Launch site
SRILR
Launch vehicle
Mass (kg)
RCS (m²)
8.56

Purposes: comms, nav

External: N2YO · Heavens-Above · Gunter

§ Orbital elements

Epoch: 2026-09-19T22:43:03.258336Z

Period
1,436.00 min
Inclination
5.4253°
Eccentricity
0.0002755
Mean motion
1.00278439 rev/d
Perigee alt
35,773.1 km
Apogee alt
35,796.3 km
Semi-major
42,162.9 km
B*
0.0000e+0
RAAN
95.2695°
Arg perigee
41.3419°
Mean anomaly
332.4060°
Rev number
3,813

§ Raw data

IRNSS-1G1 41469U 16027A   26262.94656549 -.00000337  00000+0  00000+0 0  99982 41469   5.4253  95.2695 0002755  41.3419 332.4060  1.00278439 38139

JSON: /api/v1/satellites/41469 · /tle

For live sub-satellite position, see the globe view (requires WebGL).

§ Visibility from observer

Set your observer location to see the next 7 days of passes ≥ 10°. The values pass through the URL so the page stays shareable.

No JS? Fill the form by hand. The geolocation button needs JavaScript.